* Astronomy

Members Login
Post Info TOPIC: Asteroid 2010 OL101


L

Posts: 131433
Date:
Asteroid 2010 OL101
Permalink  
 


Orbital elements:
2010 OL101 Earth MOID = 0.3122 AU
Epoch 2010 July 23.0 TT = JDT 2455400.5 MPC
M 3.41631 (2000.0) P Q
n 0.21301001 Peri. 103.61588 +0.08442842 +0.99351504
a 2.7767453 Node 170.22042 -0.99548641 +0.08077724
e 0.6174818 Incl. 26.63781 +0.04334341 -0.08001811
P 4.63 H 20.2 G 0.15 U 9

MPEC 2010 - P15


__________________
Page 1 of 1  sorted by
 
Quick Reply

Please log in to post quick replies.



Create your own FREE Forum
Report Abuse
Powered by ActiveBoard